Temperature
-1 -1 -1 -1 -1 -0 -0 -0 0 0 1 1 1 1 1 1 1 1 2 2 2 2 2 2 2 2 2 2 2 2 2 2 2 2 2 2 2 2 2 2 2 2 2
-1 -1 -1 -1 -1 -1 -1 -1 -0 -0 0 0 1 1 1 1 1 1 1 1 1 1 1 1 2 2 2 2 2 1 1 1 1 1 2 1 1 1 1 1 1 1 2
-2 -2 -2 -2 -2 -2 -1 -1 -1 -1 -0 -0 0 0 0 0 0 0 0 0 0 1 1 1 1 1 1 1 1 1 1 1 1 1 1 1 1 1 0 0 0 1 1
-3 -3 -2 -2 -2 -2 -2 -2 -2 -1 -1 -1 -1 -1 -0 -0 -0 -0 -0 -0 -0 -0 0 0 0 0 0 0 0 0 0 -0 -0 -0 -0 0 -0 -0 -0 -0 -0 -0 -0
-3 -3 -3 -3 -3 -3 -3 -3 -2 -2 -2 -2 -2 -1 -1 -1 -1 -1 -1 -1 -1 -1 -1 -0 -0 -0 -0 -0 -1 -0 -1 -1 -1 -1 -1 -1 -1 -1 -1 -1 -1 -1 -1
-4 -4 -4 -4 -4 -4 -3 -3 -3 -3 -3 -3 -2 -2 -2 -2 -2 -2 -2 -2 -1 -1 -1 -1 -1 -1 -1 -1 -1 -1 -1 -1 -1 -1 -2 -2 -1 -1 -2 -2 -2 -2 -2
-5 -4 -4 -4 -4 -4 -4 -4 -4 -4 -4 -3 -3 -3 -3 -3 -3 -2 -2 -2 -2 -2 -2 -2 -2 -2 -2 -2 -2 -2 -2 -2 -2 -2 -2 -2 -2 -2 -2 -2 -3 -3 -2
-5 -5 -5 -5 -5 -5 -5 -4 -4 -4 -4 -4 -4 -4 -4 -4 -3 -3 -3 -3 -3 -3 -3 -3 -3 -2 -2 -2 -2 -2 -2 -2 -2 -3 -2 -2 -3 -3 -3 -3 -3 -3 -3
-6 -6 -6 -6 -6 -5 -5 -5 -5 -5 -5 -5 -5 -5 -5 -4 -4 -4 -4 -4 -4 -4 -4 -4 -3 -3 -3 -3 -3 -3 -3 -3 -3 -3 -3 -3 -3 -4 -4 -4 -4 -4 -4
-7 -7 -7 -6 -6 -6 -6 -5 -5 -5 -5 -5 -5 -5 -5 -5 -5 -5 -5 -5 -4 -4 -4 -4 -4 -4 -4 -4 -4 -4 -4 -4 -4 -4 -4 -4 -4 -4 -4 -4 -4 -5 -5
-7 -7 -7 -7 -7 -6 -6 -6 -6 -6 -6 -6 -6 -6 -6 -6 -6 -6 -6 -5 -5 -5 -5 -5 -5 -5 -5 -5 -5 -5 -5 -4 -5 -5 -5 -5 -5 -5 -5 -5 -5 -5 -6
-8 -7 -7 -7 -7 -7 -7 -7 -7 -7 -7 -7 -7 -7 -7 -6 -6 -6 -6 -6 -6 -6 -6 -6 -6 -6 -6 -5 -5 -5 -5 -5 -6 -6 -6 -6 -6 -6 -6 -6 -6 -6 -6
-8 -8 -8 -8 -8 -8 -8 -7 -8 -8 -8 -8 -8 -7 -7 -7 -7 -7 -7 -7 -7 -7 -7 -6 -6 -6 -6 -6 -6 -6 -6 -6 -6 -6 -6 -6 -6 -7 -7 -7 -7 -7 -7
-9 -8 -8 -8 -8 -8 -8 -8 -8 -8 -8 -8 -8 -8 -8 -8 -8 -8 -8 -8 -8 -8 -7 -7 -7 -7 -7 -7 -7 -7 -7 -7 -7 -7 -7 -7 -7 -7 -8 -8 -8 -8 -8
-9 -9 -9 -9 -9 -9 -9 -9 -9 -9 -9 -9 -9 -9 -9 -9 -9 -9 -9 -9 -8 -8 -8 -8 -8 -8 -8 -8 -8 -8 -8 -8 -8 -8 -8 -8 -8 -8 -8 -8 -9 -9 -9
-10 -10 -10 -10 -10 -10 -9 -9 -9 -9 -9 -9 -9 -9 -9 -9 -9 -9 -9 -9 -9 -9 -9 -9 -9 -9 -9 -9 -9 -9 -9 -8 -8 -8 -8 -9 -9 -9 -9 -9 -9 -9 -9
-11 -11 -11 -11 -11 -10 -10 -10 -10 -10 -10 -10 -10 -10 -10 -10 -10 -10 -9 -9 -9 -9 -9 -9 -9 -9 -9 -9 -9 -9 -9 -9 -9 -9 -9 -9 -9 -9 -9 -10 -10 -10 -10
-11 -11 -11 -11 -11 -11 -11 -11 -11 -11 -11 -11 -10 -11 -11 -10 -10 -10 -10 -10 -10 -10 -10 -10 -10 -10 -10 -10 -10 -10 -10 -10 -9 -9 -10 -10 -10 -10 -10 -10 -10 -10 -10
-12 -12 -12 -12 -12 -12 -12 -12 -12 -12 -12 -11 -11 -11 -11 -11 -11 -11 -11 -11 -11 -11 -11 -10 -10 -10 -10 -10 -10 -10 -10 -10 -10 -10 -10 -10 -10 -10 -10 -11 -11 -11 -11
-12 -12 -12 -12 -12 -12 -12 -12 -12 -12 -12 -12 -12 -12 -12 -11 -11 -11 -11 -11 -11 -11 -11 -11 -11 -11 -11 -11 -11 -11 -11 -11 -11 -11 -11 -11 -11 -11 -11 -11 -11 -11 -12
-13 -13 -13 -13 -13 -13 -13 -13 -13 -13 -13 -12 -12 -12 -12 -12 -12 -12 -12 -12 -12 -12 -12 -12 -12 -12 -12 -11 -11 -11 -11 -11 -11 -11 -11 -11 -11 -11 -12 -12 -12 -12 -12
-13 -13 -13 -14 -14 -13 -13 -13 -13 -13 -13 -13 -13 -13 -13 -13 -13 -13 -13 -13 -12 -12 -12 -12 -12 -12 -12 -12 -12 -12 -12 -12 -12 -12 -12 -12 -12 -12 -12 -12 -12 -12 -12
-14 -14 -14 -14 -14 -14 -14 -14 -14 -14 -14 -14 -14 -13 -13 -13 -13 -13 -13 -13 -13 -13 -13 -13 -13 -12 -12 -12 -12 -12 -12 -12 -12 -12 -12 -12 -12 -12 -12 -12 -12 -13 -13
-14 -14 -14 -14 -14 -14 -14 -14 -14 -14 -14 -14 -14 -14 -14 -14 -14 -13 -13 -13 -13 -13 -13 -13 -13 -13 -13 -13 -13 -13 -12 -13 -12 -12 -12 -12 -12 -12 -12 -13 -13 -13 -13
-14 -15 -15 -15 -15 -15 -15 -15 -15 -14 -14 -14 -14 -14 -14 -14 -14 -14 -14 -14 -13 -13 -13 -13 -13 -13 -13 -13 -13 -13 -13 -13 -13 -13 -13 -13 -13 -13 -13 -13 -13 -13 -13
-15 -15 -15 -15 -15 -15 -15 -15 -15 -15 -15 -15 -15 -15 -15 -14 -14 -14 -14 -14 -14 -14 -14 -13 -13 -13 -13 -13 -13 -13 -13 -13 -13 -13 -13 -13 -13 -13 -13 -13 -13 -13 -13
Wind_Speed
2 2 2 3 2 2 2 3 3 3 4 4 5 5 5 5 4 4 5 5 5 4 4 4 4 3 3 3 3 3 2 3 3 2 1 1 2 1 3 3 3 3 4
2 2 2 3 2 2 3 3 3 3 4 5 5 5 5 5 5 6 6 6 6 6 5 5 5 4 4 4 4 4 4 3 3 3 2 2 2 2 2 2 3 3 4
3 2 2 2 2 3 3 3 3 3 3 3 4 5 6 6 6 6 7 7 7 7 6 6 6 5 5 4 4 4 4 3 3 3 3 2 1 2 2 2 2 2 4
3 2 2 2 3 3 3 3 3 3 3 3 4 4 5 6 6 6 6 6 6 6 6 6 6 7 7 6 5 6 5 4 3 3 3 2 2 2 2 2 2 2 2
3 2 3 3 2 2 3 2 2 2 2 3 3 3 3 4 5 6 6 6 6 6 5 5 6 7 8 7 6 6 6 5 4 4 3 3 3 3 3 2 2 2 3
3 3 3 2 2 2 2 2 2 2 1 2 3 3 3 4 5 6 5 5 5 6 6 5 5 6 7 8 9 9 8 7 6 5 4 5 5 4 3 3 2 2 3
3 4 3 2 2 2 2 2 2 3 2 3 3 3 4 4 5 6 6 5 5 5 6 5 5 5 5 5 6 6 7 8 9 7 7 7 6 6 5 4 4 4 4
4 4 4 3 2 2 2 3 3 3 3 3 3 3 3 3 5 5 5 3 4 4 5 6 6 5 5 5 4 4 5 5 7 6 6 6 6 7 7 5 5 3 2
4 4 4 3 3 3 3 3 3 3 3 3 3 4 4 4 5 5 4 3 3 4 4 5 5 5 7 7 5 5 5 4 5 7 7 7 8 8 7 3 3 2 3
5 5 5 3 3 3 4 3 3 3 3 3 3 3 3 3 5 5 5 3 3 3 3 4 6 7 8 8 6 6 6 5 4 4 4 4 4 6 7 5 5 4 2
5 5 4 3 3 3 3 2 2 2 2 2 3 2 3 3 5 6 6 3 3 3 3 3 4 8 9 9 8 6 7 5 4 4 3 3 2 3 4 4 5 4 4
4 4 4 3 3 2 2 2 2 2 2 3 2 2 2 3 4 5 6 5 4 3 4 3 4 7 8 8 7 6 6 5 3 3 3 3 3 3 3 3 4 4 4
4 4 4 3 2 2 2 2 2 2 3 3 3 3 2 2 3 6 6 6 5 3 3 5 6 7 7 5 6 6 5 3 3 3 3 3 2 2 2 2 1 2 3
4 4 3 2 2 1 1 2 2 3 3 3 3 3 3 3 2 2 2 3 4 4 3 5 6 5 4 4 4 4 3 3 3 3 3 2 2 2 2 2 2 1 1
3 3 3 2 1 1 1 2 2 3 4 4 4 4 3 3 4 5 3 3 3 3 2 2 2 2 2 2 2 2 2 3 3 2 3 3 3 2 2 2 2 2 2
2 2 2 2 1 1 1 2 3 2 3 3 3 3 3 4 5 6 6 6 6 5 3 3 3 3 4 4 4 3 3 3 3 3 3 4 4 3 3 3 3 3 3
2 2 2 1 1 1 1 1 1 2 2 2 2 3 2 3 3 3 3 3 4 4 3 2 3 3 3 3 3 3 3 3 3 4 4 4 4 4 4 4 3 3 4
2 3 2 2 1 1 1 1 1 1 1 2 2 2 2 2 2 2 1 1 1 1 2 2 2 3 3 3 3 3 3 3 3 3 3 3 4 4 4 4 4 4 4
2 2 2 1 1 1 1 1 1 1 1 1 2 2 3 2 1 1 0 1 1 2 1 2 2 2 2 3 3 3 3 3 3 3 4 4 4 4 4 4 4 6 5
2 3 2 1 1 1 1 1 1 1 1 1 2 2 2 1 0 1 1 1 1 2 2 2 2 2 2 3 3 3 3 3 3 4 4 4 4 4 4 5 5 5 5
2 2 3 2 1 1 1 1 1 1 1 1 2 2 2 1 1 1 1 1 2 2 2 2 2 2 3 3 3 3 4 4 4 4 4 4 4 4 4 4 5 5 4
1 2 1 1 1 1 1 1 1 1 2 2 2 2 3 1 1 2 2 2 2 2 2 2 3 3 3 3 3 4 4 4 4 4 4 4 4 4 5 5 5 5 5
1 2 2 2 1 2 2 1 1 1 2 2 2 2 2 2 2 2 2 2 3 3 3 3 3 3 4 4 4 5 5 5 5 5 4 4 4 5 5 5 6 6 6
2 2 2 2 1 1 1 2 2 2 2 2 2 2 2 2 3 3 3 3 3 4 4 4 4 5 6 6 5 6 7 8 7 7 7 6 6 5 5 6 6 7 6
2 2 2 2 2 2 2 2 2 2 3 3 3 3 3 3 3 3 3 3 4 4 5 5 5 5 7 8 8 8 9 10 10 9 8 7 6 6 6 6 6 6 6
2 2 2 2 2 2 3 3 3 3 3 3 3 3 3 3 4 4 4 4 4 5 5 6 6 7 8 8 9 9 10 11 11 11 9 7 6 6 6 6 7 7 7
Wind_Direction
294 252 227 229 219 205 210 219 218 209 196 193 196 192 190 188 185 187 196 183 187 196 196 193 200 194 187 184 175 174 172 163 205 240 216 206 202 230 275 265 270 278 286
303 286 241 235 225 217 225 229 224 218 203 198 196 195 197 196 194 200 197 189 192 199 201 198 205 199 198 194 185 188 189 179 183 207 222 214 230 219 228 256 274 276 290
308 284 275 247 231 231 233 232 224 218 211 198 192 196 201 201 202 206 199 194 197 202 202 203 205 197 205 204 195 195 193 188 172 184 217 219 230 214 224 260 285 295 293
317 289 268 262 246 242 241 232 225 218 213 207 208 207 206 206 207 203 198 198 201 204 205 208 208 204 207 205 205 197 189 182 174 179 197 209 214 212 198 230 280 291 298
320 297 274 274 274 259 245 233 230 222 222 216 211 209 210 210 209 201 197 198 199 203 208 214 215 212 213 212 215 200 190 189 190 195 204 209 211 202 216 217 255 286 291
311 298 291 282 279 268 250 229 219 217 217 205 204 201 205 218 215 212 209 201 202 205 211 215 219 217 221 225 226 218 205 200 201 205 217 215 218 216 214 222 231 255 270
309 307 308 296 288 288 274 243 225 219 211 208 211 202 211 226 220 219 221 211 206 209 211 211 222 222 221 214 224 227 224 221 215 214 215 217 213 206 202 216 223 231 249
309 308 305 297 282 280 270 244 233 227 216 217 220 214 216 227 223 221 221 211 204 211 215 212 211 211 215 211 205 213 222 225 222 218 218 218 217 208 205 213 221 238 273
307 301 297 291 283 272 261 251 238 229 225 225 223 214 214 227 227 225 217 203 213 216 220 216 211 208 216 214 208 208 221 231 235 228 229 228 225 221 213 186 194 221 264
298 296 294 289 273 263 256 253 243 232 230 232 235 222 212 218 228 229 225 213 216 218 217 216 217 217 219 216 208 203 215 221 210 219 223 227 220 216 215 204 195 213 241
298 300 298 287 270 263 263 253 232 226 223 225 229 238 226 230 227 228 230 222 214 213 219 218 220 223 227 226 223 214 219 211 194 197 202 201 198 202 211 219 212 210 224
302 299 295 284 274 266 251 249 230 214 210 222 222 234 243 244 243 234 230 236 232 219 223 224 225 228 231 229 227 224 218 202 183 186 199 207 207 213 212 219 219 229 237
305 300 295 290 280 264 234 229 221 214 213 220 217 226 243 252 248 243 239 240 240 238 234 231 236 233 232 229 228 218 200 187 180 189 202 210 206 201 194 194 205 235 263
301 305 306 300 292 284 259 232 219 217 219 224 222 227 235 239 240 243 238 249 244 247 245 240 235 234 236 230 221 208 199 195 195 202 200 198 185 187 201 196 218 214 265
303 306 310 311 298 293 279 253 242 235 229 223 222 224 224 234 248 252 245 238 232 235 222 207 197 203 212 210 195 194 190 186 195 187 188 198 208 216 225 213 223 226 247
300 305 307 314 309 299 297 312 306 285 276 261 250 243 248 252 252 247 245 245 240 226 207 200 204 209 214 215 206 202 202 202 201 201 201 205 215 218 225 229 230 226 241
282 288 291 295 289 288 277 270 300 325 320 310 289 266 260 254 251 247 243 238 224 205 195 198 209 212 214 212 208 207 215 210 203 203 207 208 212 217 220 225 228 234 245
290 290 288 277 270 268 266 267 261 273 304 310 313 304 296 279 269 255 235 189 193 197 194 206 216 215 214 213 208 206 205 202 200 202 203 205 206 210 220 226 226 229 241
296 291 286 280 274 267 262 255 251 260 268 290 313 308 302 302 310 311 206 169 198 217 220 227 228 222 218 216 214 211 206 207 207 205 209 209 209 209 221 226 228 236 244
295 295 292 279 273 272 262 251 253 261 280 293 295 299 306 320 290 301 299 252 233 237 238 242 242 230 221 217 214 212 211 214 212 213 214 214 215 217 222 226 229 233 239
300 303 307 307 291 272 266 258 253 249 255 275 289 291 287 269 252 264 266 268 259 256 257 251 246 236 226 219 216 216 219 224 222 219 219 219 218 223 227 230 233 237 241
299 302 306 303 298 288 278 264 254 249 250 261 290 299 300 308 274 271 270 273 273 275 275 265 253 242 233 225 222 224 227 229 228 222 221 222 224 228 230 234 236 237 237
288 289 292 294 289 288 303 300 276 262 262 266 271 283 291 284 278 275 274 275 278 280 277 268 260 261 258 248 240 232 229 233 229 221 221 226 229 231 231 236 236 237 238
272 272 276 284 286 279 280 285 286 279 270 269 271 270 271 269 270 274 274 279 281 282 279 271 265 263 263 263 257 247 241 238 235 229 224 223 232 236 236 237 239 239 242
268 267 270 271 271 270 271 272 276 279 276 274 273 273 275 275 274 273 273 276 278 278 278 276 272 267 263 262 259 255 251 249 247 239 229 227 231 233 233 234 239 242 243
261 260 261 259 258 259 262 265 267 269 270 271 269 269 270 271 273 274 274 273 274 276 279 280 274 270 268 266 262 258 257 254 252 250 242 231 227 232 232 237 238 240 241
Height
1471 1471 1472 1473 1474 1475 1476 1477 1478 1480 1482 1484 1485 1487 1489 1491 1493 1495 1497 1499 1502 1504 1507 1509 1511 1514 1516 1517 1519 1521 1523 1524 1525 1526 1528 1530 1531 1532 1532 1533 1534 1534 1534
1468 1468 1469 1470 1470 1471 1472 1473 1474 1476 1477 1479 1481 1483 1485 1487 1489 1491 1493 1495 1497 1499 1502 1504 1507 1509 1511 1513 1514 1516 1518 1519 1521 1521 1523 1524 1526 1527 1528 1528 1529 1529 1529
1466 1465 1466 1466 1466 1467 1468 1469 1470 1471 1473 1475 1476 1478 1480 1482 1485 1487 1489 1490 1493 1495 1497 1500 1502 1504 1506 1508 1509 1511 1513 1514 1516 1517 1517 1519 1521 1522 1523 1523 1524 1524 1524
1463 1462 1462 1462 1463 1463 1464 1465 1466 1467 1468 1470 1472 1474 1476 1478 1480 1482 1484 1486 1488 1490 1493 1495 1498 1499 1501 1503 1504 1506 1508 1509 1511 1512 1513 1514 1516 1517 1518 1518 1518 1519 1519
1460 1459 1459 1459 1459 1459 1460 1460 1461 1462 1464 1466 1467 1469 1471 1472 1474 1477 1479 1481 1483 1485 1488 1490 1492 1494 1496 1498 1500 1501 1503 1504 1505 1507 1508 1509 1510 1511 1512 1512 1513 1513 1513
1457 1456 1455 1455 1455 1455 1455 1456 1457 1458 1460 1461 1462 1464 1466 1467 1470 1472 1474 1476 1478 1480 1482 1484 1487 1489 1490 1492 1494 1496 1498 1499 1500 1501 1502 1503 1504 1506 1507 1507 1508 1508 1508
1454 1452 1452 1451 1451 1451 1452 1453 1453 1454 1456 1457 1459 1459 1461 1463 1465 1467 1469 1471 1473 1475 1477 1479 1480 1482 1485 1486 1488 1490 1491 1493 1495 1496 1497 1497 1499 1500 1502 1502 1503 1503 1503
1451 1450 1449 1448 1448 1448 1449 1449 1450 1451 1452 1453 1454 1455 1456 1458 1460 1462 1464 1466 1468 1469 1471 1473 1475 1476 1478 1481 1482 1484 1485 1487 1488 1490 1491 1492 1494 1495 1496 1497 1498 1498 1498
1447 1447 1446 1445 1444 1444 1444 1445 1446 1447 1448 1449 1450 1451 1452 1453 1456 1458 1459 1461 1462 1464 1466 1468 1469 1471 1473 1476 1477 1478 1479 1481 1482 1484 1486 1487 1488 1489 1491 1492 1492 1492 1492
1444 1443 1442 1442 1441 1441 1441 1441 1442 1443 1444 1445 1446 1447 1448 1449 1451 1453 1455 1456 1457 1458 1460 1462 1464 1466 1468 1470 1471 1472 1473 1475 1477 1478 1479 1481 1482 1483 1485 1486 1486 1487 1486
1441 1440 1439 1438 1437 1437 1437 1438 1439 1440 1440 1441 1442 1443 1444 1446 1447 1449 1450 1451 1452 1454 1455 1457 1459 1461 1463 1464 1466 1467 1468 1470 1471 1472 1473 1475 1476 1477 1479 1480 1481 1481 1481
1438 1437 1436 1435 1434 1434 1434 1434 1435 1436 1437 1437 1438 1439 1440 1442 1443 1444 1446 1447 1448 1449 1450 1452 1454 1456 1458 1459 1461 1462 1463 1465 1466 1466 1468 1469 1470 1472 1473 1474 1475 1476 1476
1434 1433 1432 1431 1431 1431 1431 1431 1432 1432 1433 1433 1434 1435 1436 1437 1439 1440 1441 1442 1444 1445 1446 1448 1450 1451 1453 1454 1455 1457 1458 1459 1460 1461 1462 1463 1465 1466 1468 1468 1469 1470 1471
1431 1430 1429 1428 1428 1428 1427 1428 1428 1428 1429 1430 1430 1431 1432 1433 1434 1435 1436 1437 1439 1440 1442 1443 1445 1446 1447 1448 1450 1451 1452 1454 1455 1457 1458 1459 1460 1461 1462 1463 1464 1464 1465
1428 1427 1426 1425 1425 1424 1424 1424 1424 1425 1425 1426 1426 1428 1428 1428 1429 1430 1432 1433 1434 1436 1437 1438 1439 1440 1441 1443 1444 1446 1447 1449 1451 1452 1453 1454 1455 1456 1457 1458 1459 1459 1459
1425 1424 1423 1422 1421 1421 1421 1421 1421 1422 1422 1423 1423 1424 1424 1425 1426 1427 1428 1430 1431 1432 1433 1433 1434 1435 1436 1438 1439 1441 1442 1444 1446 1447 1448 1449 1450 1451 1452 1453 1454 1454 1454
1423 1422 1420 1420 1419 1418 1418 1418 1417 1418 1419 1419 1419 1420 1421 1422 1422 1423 1424 1425 1427 1428 1428 1428 1429 1430 1432 1433 1435 1436 1437 1439 1441 1442 1443 1444 1445 1446 1447 1448 1449 1449 1449
1420 1419 1418 1417 1416 1416 1415 1415 1415 1415 1415 1415 1416 1417 1417 1418 1418 1419 1420 1421 1422 1423 1423 1424 1425 1426 1427 1429 1430 1431 1433 1434 1436 1437 1438 1439 1440 1441 1442 1443 1443 1444 1444
1417 1416 1415 1414 1414 1414 1413 1413 1413 1413 1413 1412 1413 1414 1415 1415 1415 1416 1417 1417 1417 1418 1419 1420 1421 1422 1423 1425 1426 1427 1428 1429 1431 1432 1433 1434 1435 1436 1437 1437 1438 1439 1439
1415 1414 1413 1412 1412 1411 1411 1411 1411 1411 1410 1410 1411 1411 1412 1412 1412 1412 1413 1413 1414 1414 1415 1416 1417 1418 1419 1420 1421 1423 1424 1425 1426 1427 1428 1429 1430 1431 1432 1432 1433 1433 1433
1412 1412 1411 1411 1410 1410 1409 1409 1409 1408 1408 1408 1408 1409 1410 1409 1409 1409 1410 1410 1410 1411 1411 1412 1413 1414 1415 1416 1417 1418 1419 1420 1421 1421 1423 1424 1425 1426 1427 1427 1428 1428 1428
1410 1410 1409 1409 1408 1407 1407 1407 1407 1406 1406 1406 1406 1407 1407 1407 1407 1407 1407 1407 1407 1408 1408 1409 1409 1410 1411 1412 1412 1413 1414 1415 1416 1417 1418 1419 1420 1421 1421 1422 1422 1422 1423
1408 1408 1407 1406 1406 1405 1405 1405 1405 1404 1404 1404 1404 1404 1404 1404 1404 1404 1404 1404 1404 1404 1405 1405 1405 1406 1407 1407 1408 1409 1409 1410 1411 1412 1413 1414 1414 1415 1416 1416 1416 1416 1417
1406 1406 1405 1404 1404 1403 1403 1402 1402 1402 1402 1402 1402 1401 1401 1401 1401 1401 1401 1401 1401 1401 1401 1401 1401 1402 1402 1403 1404 1404 1405 1406 1406 1407 1408 1408 1409 1409 1410 1410 1411 1411 1411
1404 1403 1402 1402 1401 1400 1400 1400 1399 1399 1399 1399 1398 1398 1398 1398 1397 1397 1397 1397 1397 1397 1397 1397 1397 1397 1398 1398 1399 1399 1400 1401 1401 1402 1402 1403 1403 1404 1404 1404 1405 1405 1405
1401 1400 1400 1399 1398 1398 1397 1397 1396 1396 1396 1395 1395 1395 1394 1394 1394 1393 1393 1393 1393 1393 1393 1392 1393 1393 1393 1394 1394 1394 1395 1395 1396 1397 1397 1397 1397 1398 1398 1399 1399 1399 1399